W0DP-11 Weather Reports


time (UTC)temp
C
wind
direction
speed
KPH
gust
KPH
rain 1hr
cm
rain 24hr
cm
rain mn
cm
humidity
%
barometer
mb
20260503005036 13 0.0 0.0 0.00 0.00 0.00 45 1007.9
20260503004016 13 0.0 3.2 0.00 0.00 0.00 45 1007.8
20260503003016 13 0.0 0.0 0.00 0.00 0.00 48 1008.0
20260503002016 13 0.0 0.0 0.00 0.00 0.00 47 1008.1
20260503001015 13 0.0 1.6 0.00 0.00 0.00 45 1008.1
20260503000015 13 0.0 1.6 0.00 0.00 0.00 45 1008.2
20260502235015 13 0.0 3.2 0.00 0.00 0.00 44 1008.4
20260502234016 14 248 3.2 9.7 0.00 0.00 0.00 43 1008.2
20260502233015 13 225 1.6 4.8 0.00 0.00 0.00 42 1008.2
20260502232015 13 270 1.6 4.8 0.00 0.00 0.00 47 1008.5
20260502231056 14 270 4.8 12.9 0.00 0.00 0.00 43 1008.5
20260502230015 15 270 3.2 8.0 0.00 0.00 0.00 40 1008.6
20260502225015 15 248 4.8 14.5 0.00 0.00 0.00 40 1008.6
20260502224016 15 293 4.8 9.7 0.00 0.00 0.00 45 1008.7
20260502223035 15 293 4.8 8.0 0.00 0.00 0.00 45 1008.8
20260502222016 15 293 4.8 9.7 0.00 0.00 0.00 40 1008.9
20260502221017 15 270 6.4 12.9 0.00 0.00 0.00 38 1009.0
20260502220017 16 293 4.8 12.9 0.00 0.00 0.00 39 1009.1
20260502215018 16 248 8.0 14.5 0.00 0.00 0.00 36 1009.4
20260502214017 15 248 6.4 14.5 0.00 0.00 0.00 37 1009.5
20260502213017 15 293 6.4 11.3 0.00 0.00 0.00 40 1009.4
20260502212037 14 315 1.6 4.8 0.00 0.00 0.00 43 1009.6
20260502211017 15 293 6.4 11.3 0.00 0.00 0.00 39 1009.7
20260502210018 13 293 8.0 16.1 0.00 0.00 0.00 42 1009.8
20260502205017 13 315 3.2 6.4 0.00 0.00 0.00 41 1010.0
20260502204017 13 293 4.8 8.0 0.00 0.00 0.00 43 1010.2
20260502203017 15 293 6.4 12.9 0.00 0.00 0.00 40 1010.5
20260502202017 15 225 6.4 12.9 0.00 0.00 0.00 36 1010.6
20260502201017 14 248 6.4 16.1 0.00 0.00 0.00 36 1010.9
20260502200017 13 270 8.0 14.5 0.00 0.00 0.00 39 1011.1
20260502195017 13 293 6.4 14.5 0.00 0.00 0.00 38 1011.1
20260502194017 13 293 6.4 12.9 0.00 0.00 0.00 36 1011.3
20260502193057 13 293 6.4 11.3 0.00 0.00 0.00 40 1011.5
20260502192017 13 293 8.0 12.9 0.00 0.00 0.00 36 1011.6
20260502191017 13 293 8.0 12.9 0.00 0.00 0.00 36 1011.7
20260502190017 13 248 6.4 14.5 0.00 0.00 0.00 36 1011.9
20260502185017 12 293 6.4 9.7 0.00 0.00 0.00 41 1012.1
20260502184017 12 293 8.0 14.5 0.00 0.00 0.00 40 1012.2
20260502183017 12 293 3.2 8.0 0.00 0.00 0.00 38 1012.4
20260502182037 12 293 6.4 12.9 0.00 0.00 0.00 39 1012.6
20260502181017 12 293 6.4 22.5 0.00 0.00 0.00 39 1012.8
20260502164037 10 293 1.6 4.8 0.00 0.00 0.00 38 1014.3
20260502163016 10 315 3.2 8.0 0.00 0.00 0.00 41 1014.6
20260502162017 10 270 1.6 4.8 0.00 0.00 0.00 39 1014.7
20260502161017 10 293 4.8 8.0 0.00 0.00 0.00 42 1014.8
20260502152016 8 23 1.6 4.8 0.00 0.00 0.00 51 1015.2
20260502151016 7 45 3.2 6.4 0.00 0.00 0.00 50 1015.4
20260502123036 2 0.0 1.6 0.00 0.00 0.00 78 1016.7
20260502122016 1 0.0 1.6 0.00 0.00 0.00 80 1016.7
20260502121036 0 0.0 0.0 0.00 0.00 0.00 85 1016.7
20260502115036 0 0.0 0.0 0.00 0.00 0.00 86 1016.4
20260502114016 0 0.0 0.0 0.00 0.00 0.00 90 1016.4
20260502113016 -1 0.0 0.0 0.00 0.00 0.00 93 1016.5
20260502112036 -2 0.0 0.0 0.00 0.00 0.00 94 1016.3
20260502111036 -2 0.0 0.0 0.00 0.00 0.00 95 1016.2
20260502110016 -3 0.0 0.0 0.00 0.00 0.00 95 1016.1
20260502105036 -4 0.0 0.0 0.00 0.00 0.00 95 1016.0
20260502104036 -3 0.0 0.0 0.00 0.00 0.00 95 1016.0
20260502103036 -4 0.0 0.0 0.00 0.00 0.00 95 1016.1
20260502102016 -3 0.0 0.0 0.00 0.00 0.00 95 1016.2
20260502101036 -4 0.0 0.0 0.00 0.00 0.00 95 1016.2
20260502091016 -3 0.0 0.0 0.00 0.00 0.00 93 1016.3
20260502071017 -2 0.0 0.0 0.00 0.00 0.00 90 1016.6
20260502070017 -2 0.0 0.0 0.00 0.00 0.00 90 1016.7
20260502065017 -2 0.0 0.0 0.00 0.00 0.00 92 1016.7
20260502064017 -2 0.0 0.0 0.00 0.00 0.00 91 1016.6
20260502063017 -2 0.0 0.0 0.00 0.00 0.00 91 1016.6
20260502062017 -2 0.0 0.0 0.00 0.00 0.00 90 1016.7
20260502061017 -2 0.0 0.0 0.00 0.00 0.00 90 1016.7
20260502060017 -2 0.0 1.6 0.00 0.00 0.00 89 1016.7
20260502055017 -2 0.0 0.0 0.00 0.00 0.00 89 1016.7
20260502054017 -2 0.0 0.0 0.00 0.00 0.00 89 1016.6
20260502053017 -2 0.0 0.0 0.00 0.00 0.00 88 1016.7
20260502052017 -1 0.0 0.0 0.00 0.00 0.00 88 1016.7
20260502051017 -1 0.0 0.0 0.00 0.00 0.00 87 1016.8
20260502050017 -2 0.0 0.0 0.00 0.00 0.00 86 1016.7
20260502045035 -1 0.0 0.0 0.00 0.00 0.00 84 1016.9
20260502044016 -1 0.0 0.0 0.00 0.00 0.00 84 1016.8
20260502043015 -1 0.0 0.0 0.00 0.00 0.00 83 1016.7
20260502042015 -1 0.0 0.0 0.00 0.00 0.00 79 1016.8
20260502041015 -1 0.0 0.0 0.00 0.00 0.00 77 1016.8
20260502040017 -1 0.0 0.0 0.00 0.00 0.00 76 1016.7
20260502035017 0 0.0 0.0 0.00 0.00 0.00 79 1016.9
20260502034017 0 0.0 0.0 0.00 0.00 0.00 77 1016.8
20260502033017 0 0.0 0.0 0.00 0.00 0.00 70 1016.7
20260502032017 0 0.0 0.0 0.00 0.00 0.00 68 1016.7
20260502031017 0 0.0 0.0 0.00 0.00 0.00 68 1016.7
20260502030037 0 0.0 0.0 0.00 0.00 0.00 67 1016.8
20260502025017 1 0.0 0.0 0.00 0.00 0.00 66 1016.9
20260502024017 1 0.0 0.0 0.00 0.00 0.00 61 1016.7
20260502023017 1 0.0 0.0 0.00 0.00 0.00 61 1016.7
20260502022017 2 0.0 0.0 0.00 0.00 0.00 59 1016.8
20260502021037 3 0.0 0.0 0.00 0.00 0.00 58 1016.7
20260502020017 3 0.0 0.0 0.00 0.00 0.00 56 1016.6
20260502015017 3 0.0 0.0 0.00 0.00 0.00 56 1016.5
20260502014037 4 0.0 0.0 0.00 0.00 0.00 54 1016.5
20260502013017 5 0.0 0.0 0.00 0.00 0.00 53 1016.5
20260502012017 4 0.0 1.6 0.00 0.00 0.00 57 1016.4
20260502011017 5 45 1.6 4.8 0.00 0.00 0.00 53 1016.5
20260502010017 6 45 4.8 9.7 0.00 0.00 0.00 52 1016.5